Location: Unspecified
(35.6961°N, 0.0000°E)
Time: 17:39:59
(UTC+00:00)

S-56A Canister/Altair - Pass Details

Date: 02 June 2019
Orbit: 633 x 2499 km, 38.9° (Epoch: 15 June)

Event Time Altitude Azimuth Distance (km) Brightness Sun altitude
Rises 20:19:53 0° 209° (SSW) 3,089 10.5 -12.4°
Reaches altitude 10° 20:22:53 10° 192° (SSW) 2,056 9.5 -12.9°
Enters shadow 20:26:03 20° 147° (SSE) 1,476 8.4 -13.4°
Maximum altitude 20:26:09 20° 145° (SE) 1,475 - -13.4°
Drops below altitude 10° 20:29:24 10° 98° (E) 2,032 - -13.9°
Sets 20:32:20 0° 80° (E) 3,041 - -14.4°
